Tracking 35055 objects as of 19-Aug-2026
HD Live streaming from Space Station
objects crossing your sky now

STARLINK-11485

Track STARLINK-11485 now!
10-day predictions
STARLINK-11485 is classified as:


NORAD ID: 62229
Int'l Code: 2024-231M
Launch date: December 5, 2024
Source: United States (US)
Launch site: AIR FORCE WESTERN TEST RANGE (AFWTR)
Your satellite tracking list
Your tracking list is empty




NASA's NSSDC Master Catalog

Two Line Element Set (TLE):
1 62229U 24231M   26230.79663504  .00129585  00000-0  10568-2 0  9998
2 62229  53.1589  22.0315 0001425  58.4740 301.6417 15.69732980 98871
Source of the keplerian elements: AFSPC